Content
SEND FEEDBACK

Daily
Averages
Monthly
Summary
United States of America

FERRYSBURG, MICHIGAN


Home > North America > United States > Michigan
Elevation: 586 feet     Latitude: 43 04N     Longitude: 086 13W

WEATHER
 
SELECT A DAY
Number of Records: 219,926;   Date Range: 1/1/95 - 7/26/14
 
SHARE

PRINT THIS DATA

[ ← Previous Day ]
WEATHER ALMANAC - JANUARY 23, 2013
[ Next Day → ]
[ °C ]   °F
Weather ElementAverageHighLow
Temperature13.1 °F19.4 °F (2:27 pm)6.1 °F (1:55 am)
Dewpoint7.1 °F14 °F (5:50 pm)-0.4 °F (12:24 am)
Humidity77.2 %85 % (6:05 am)68 % (10:55 am)
Barometer30.17 in30.32 in (12:55 am)30.05 in (4:00 pm)
Wind Speed8.7 mph23 mph (9:12 pm)
Wind Gust27.6 mph (9:12 pm)
Weather ElementAverage
Visibility1.8 mi
Wind DirectionSW (221.6 °)

Weather ElementTotal
Precipitation0.25 in
Heating Degree Days52.3 (Base 65)
Averaged from 101 records on January 23, 2013
WEATHER CONDITIONS BREAKOUT
WIND DIRECTION BREAKOUT
WEATHER BY HOUR - JANUARY 23, 2013
[ °C ]   °F
Local TimeTemperatureDewpointHumidityBarometerVisibilityWind DirectionWind SpeedGust SpeedPrecipitationEventsConditions
12:24 AM6.8 °F-0.4 °F72 %30.28 in10.0 miCalm0.00 inOvercast
12:55 AM7.0 °F1.9 °F80 %30.32 in2.5 miCalm0.00 inSnowLight Snow
1:03 AM6.8 °F1.4 °F79 %30.27 in1.2 miCalm0.00 inSnowLight Snow
1:25 AM6.8 °F1.4 °F79 %30.26 in2.0 miEast (100°)4.6 mph0.00 inSnowLight Snow
1:35 AM6.8 °F1.4 °F79 %30.26 in3.0 miESE (120°)3.5 mph0.00 inSnowLight Snow
1:46 AM6.8 °F1.4 °F79 %30.26 in1.8 miESE (120°)4.6 mph0.00 inSnowLight Snow
1:55 AM6.1 °F1.0 °F80 %30.31 in1.2 miESE (120°)5.8 mph0.00 inSnowLight Snow
2:17 AM6.8 °F1.4 °F79 %30.25 in3.0 miSE (130°)6.9 mph0.00 inSnowLight Snow
2:35 AM6.8 °F1.4 °F79 %30.26 in2.5 miSE (130°)4.6 mph0.00 inSnowLight Snow
2:43 AM6.8 °F1.4 °F79 %30.26 in1.0 miSE (140°)3.5 mph0.00 inSnowLight Snow
2:55 AM7.0 °F1.9 °F80 %30.31 in1.0 miSE (130°)4.6 mph0.00 inSnowLight Snow
3:09 AM6.8 °F1.4 °F79 %30.26 in2.0 miSE (140°)5.8 mph0.00 inSnowLight Snow
3:19 AM6.8 °F1.4 °F79 %30.27 in1.5 miSSE (150°)4.6 mph0.00 inSnowLight Snow
3:52 AM6.8 °F1.4 °F79 %30.25 in2.0 miSE (140°)6.9 mph0.00 inSnowLight Snow
3:53 AM7.0 °F1.9 °F80 %30.30 in2.0 miSE (130°)6.9 mph0.00 inSnowLight Snow
4:11 AM6.8 °F1.4 °F79 %30.25 in4.0 miSE (130°)5.8 mph0.00 inSnowLight Snow
4:19 AM6.8 °F1.4 °F79 %30.25 in1.8 miSE (140°)4.6 mph0.00 inSnowLight Snow
4:26 AM6.8 °F1.4 °F79 %30.25 in1.0 miSE (130°)5.8 mph0.00 inSnowLight Snow
4:34 AM6.8 °F1.4 °F79 %30.24 in0.8 miSE (140°)5.8 mph0.00 inSnowLight Snow
4:46 AM6.8 °F1.4 °F79 %30.24 in1.5 miESE (120°)4.6 mph0.00 inSnowLight Snow
4:52 AM6.8 °F1.4 °F79 %30.24 in3.0 miESE (120°)4.6 mph0.00 inSnowLight Snow
4:55 AM7.0 °F1.9 °F80 %30.28 in3.0 miSE (130°)5.8 mph0.00 inSnowLight Snow
5:02 AM6.8 °F1.4 °F79 %30.23 in2.5 miSE (130°)4.6 mph0.00 inSnowLight Snow
5:23 AM6.8 °F1.4 °F79 %30.23 in5.0 miSE (140°)5.8 mph0.00 inSnowLight Snow
5:35 AM6.8 °F1.4 °F79 %30.23 in2.0 miSE (140°)5.8 mph0.00 inSnowLight Snow
5:45 AM6.8 °F1.4 °F79 %30.23 in2.0 miSE (130°)5.8 mph0.00 inSnowLight Snow
5:53 AM6.8 °F1.4 °F79 %30.22 in3.0 miSE (140°)4.6 mph0.00 inSnowLight Snow
5:55 AM7.0 °F1.9 °F80 %30.27 in3.0 miSSE (150°)4.6 mph0.00 inSnowLight Snow
6:05 AM6.8 °F3.2 °F85 %30.22 in1.5 miSSE (150°)4.6 mph0.00 inSnowLight Snow
6:34 AM8.6 °F3.2 °F79 %30.22 in3.0 miSE (130°)8.1 mph0.00 inSnowLight Snow
6:47 AM8.6 °F3.2 °F79 %30.21 in1.8 miSE (140°)10.4 mph0.00 inSnowLight Snow
6:53 AM8.6 °F3.2 °F79 %30.21 in2.0 miSE (130°)10.4 mph0.00 inSnowLight Snow
6:55 AM8.1 °F3.0 °F80 %30.26 in2.5 miSE (130°)10.4 mph0.00 inSnowLight Snow
7:10 AM8.6 °F3.2 °F79 %30.21 in1.2 miSE (130°)8.1 mph0.00 inSnowLight Snow
7:30 AM8.6 °F3.2 °F79 %30.20 in0.8 miSE (130°)6.9 mph0.00 inSnowLight Snow
7:37 AM8.6 °F3.2 °F79 %30.20 in1.5 miSE (130°)8.1 mph0.00 inSnowLight Snow
7:43 AM8.6 °F3.2 °F79 %30.20 in3.0 miSE (130°)9.2 mph0.00 inSnowLight Snow
7:55 AM8.1 °F3.0 °F80 %30.24 in3.0 miESE (120°)8.1 mph0.00 inSnowLight Snow
8:34 AM8.6 °F3.2 °F79 %30.19 in4.0 miEast (80°)3.5 mph0.00 inSnowLight Snow
8:50 AM8.6 °F3.2 °F79 %30.19 in9.0 miENE (70°)4.6 mph0.00 inSnowLight Snow
8:55 AM10.0 °F3.9 °F76 %30.24 in3.0 miEast (80°)4.6 mph0.00 inSnowLight Snow
9:04 AM8.6 °F5.0 °F85 %30.19 in1.8 miEast (100°)5.8 mph0.00 inSnowLight Snow
9:30 AM10.4 °F5.0 °F79 %30.19 in0.8 miENE (70°)5.8 mph0.00 inSnowLight Snow
9:55 AM10.9 °F6.1 °F81 %30.23 in0.8 miEast (80°)4.6 mph0.00 inSnowLight Snow
10:13 AM12.2 °F6.8 °F79 %30.18 in1.2 miCalm0.00 inSnowLight Snow
10:47 AM15.8 °F8.6 °F73 %30.18 in2.0 miWest (280°)6.9 mph0.00 inSnowLight Snow
10:55 AM16.0 °F7.0 °F68 %30.22 in2.0 miWNW (290°)12.7 mph0.00 inSnowLight Snow
11:17 AM15.8 °F8.6 °F73 %30.18 in1.2 miWest (270°)11.5 mph0.00 inSnowLight Snow
11:30 AM17.6 °F8.6 °F68 %30.17 in2.0 miWest (270°)12.7 mph20.7 mph0.00 inSnowLight Snow
11:44 AM17.6 °F8.6 °F68 %30.17 in1.5 miWNW (290°)13.8 mph0.00 inSnowLight Snow
11:55 AM17.1 °F8.1 °F68 %30.21 in2.0 miWest (280°)11.5 mph0.00 inSnowLight Snow
12:55 PM17.1 °F9.0 °F71 %30.17 in1.2 miWest (270°)12.7 mph0.00 inSnowLight Snow
1:23 PM17.6 °F10.4 °F73 %30.12 in0.5 miWest (280°)9.2 mph0.00 inSnowLight Snow
1:33 PM17.6 °F10.4 °F73 %30.11 in0.5 miWest (280°)6.9 mph0.01 inSnowLight Snow
1:47 PM17.6 °F10.4 °F73 %30.10 in0.5 miWest (270°)9.2 mph0.01 inSnowSnow
1:51 PM17.6 °F12.2 °F79 %30.10 in0.2 miWest (270°)9.2 mph0.01 inSnowHeavy Snow
1:55 PM17.1 °F12.0 °F81 %30.14 in0.2 miWest (270°)6.9 mph0.01 inSnowHeavy Snow
2:10 PM17.6 °F12.2 °F79 %30.09 in0.5 miWest (280°)8.1 mph0.01 inSnowLight Snow
2:27 PM19.4 °F10.4 °F68 %30.08 in0.5 miWest (280°)11.5 mph0.02 inSnowLight Snow
2:55 PM19.0 °F10.9 °F71 %30.11 in1.5 miWSW (250°)10.4 mph0.02 inSnowLight Snow
3:29 PM19.4 °F10.4 °F68 %30.06 in0.8 miWest (260°)10.4 mph0.00 inSnowLight Snow
3:46 PM19.4 °F10.4 °F68 %30.06 in1.5 miWest (280°)10.4 mph0.01 inSnowLight Snow
3:52 PM17.6 °F12.2 °F79 %30.06 in0.8 miWest (260°)10.4 mph0.01 inSnowLight Snow
3:55 PM18.0 °F12.0 °F78 %30.10 in0.8 miWest (260°)9.2 mph0.01 inSnowLight Snow
4:00 PM19.4 °F12.2 °F74 %30.05 in1.0 miWest (260°)9.2 mph0.00 inSnowLight Snow
4:47 PM19.4 °F12.2 °F74 %30.05 in0.5 miWNW (290°)8.1 mph0.00 inSnowLight Snow
4:55 PM19.0 °F12.0 °F74 %30.09 in1.0 miWNW (290°)6.9 mph0.00 inSnowLight Snow
5:15 PM19.4 °F12.2 °F74 %30.05 in0.5 miWNW (290°)8.1 mph16.1 mph0.00 inSnowLight Snow
5:24 PM19.4 °F12.2 °F74 %30.05 in1.5 miWNW (290°)3.5 mph0.01 inSnowLight Snow
5:41 PM19.4 °F12.2 °F74 %30.05 in0.2 miWNW (290°)9.2 mph0.01 inSnowHeavy Snow
5:50 PM19.4 °F14.0 °F80 %30.05 in0.8 miWNW (290°)6.9 mph0.02 inSnowLight Snow
5:55 PM19.0 °F14.0 °F81 %30.09 in0.8 miWNW (290°)5.8 mph0.02 inSnowLight Snow
6:02 PM19.4 °F14.0 °F80 %30.05 in1.0 miNW (310°)10.4 mph0.00 inSnowLight Snow
6:06 PM19.4 °F12.2 °F74 %30.05 in1.0 miNW (310°)6.9 mph0.00 inSnowLight Snow
6:32 PM19.4 °F14.0 °F80 %30.05 in0.5 miNW (320°)8.1 mph0.01 inSnowSnow
6:52 PM19.4 °F14.0 °F80 %30.05 in0.5 miNNW (340°)10.4 mph0.02 inSnowSnow
6:55 PM19.0 °F14.0 °F81 %30.09 in0.5 miNNW (330°)9.2 mph0.02 inSnowSnow
7:00 PM19.4 °F14.0 °F80 %30.05 in1.0 miNNW (330°)8.1 mph0.00 inSnowLight Snow
7:14 PM19.4 °F12.2 °F74 %30.05 in3.0 miNW (320°)8.1 mph0.00 inSnowLight Snow
7:23 PM19.4 °F12.2 °F74 %30.05 in0.8 miNW (310°)12.7 mph19.6 mph0.00 inSnowLight Snow
7:55 PM18.0 °F12.0 °F78 %30.11 in0.8 miNNW (330°)16.1 mph21.9 mph0.00 inSnowLight Snow
8:04 PM17.6 °F12.2 °F79 %30.07 in0.8 miNNW (340°)11.5 mph0.00 inSnowLight Snow
8:38 PM17.6 °F10.4 °F73 %30.09 in0.8 miNorth (350°)18.4 mph0.01 inSnowLight Snow
8:55 PM16.0 °F10.9 °F81 %30.14 in0.8 miNNW (330°)17.3 mph26.5 mph0.01 inSnowLight Snow
9:12 PM15.8 °F10.4 °F79 %30.12 in0.5 miNNW (340°)23.0 mph27.6 mph0.00 inSnowSnow
9:32 PM15.8 °F10.4 °F79 %30.13 in0.5 miNNW (340°)17.3 mph26.5 mph0.00 inSnowSnow
9:38 PM15.8 °F10.4 °F79 %30.14 in0.8 miNNW (340°)17.3 mph0.00 inSnowLight Snow
9:55 PM15.1 °F10.0 °F80 %30.18 in0.8 miNorth (350°)18.4 mph24.2 mph0.00 inSnowLight Snow
10:14 PM15.8 °F10.4 °F79 %30.15 in2.5 miNNW (340°)12.7 mph0.00 inSnowLight Snow
10:21 PM15.8 °F8.6 °F73 %30.15 in3.0 miNNW (340°)12.7 mph0.00 inSnowLight Snow
10:27 PM15.8 °F8.6 °F73 %30.16 in2.0 miNorth (350°)17.3 mph0.00 inSnowLight Snow
10:35 PM15.8 °F8.6 °F73 %30.17 in3.0 miNorth (350°)12.7 mph0.00 inSnowLight Snow
10:39 PM15.8 °F10.4 °F79 %30.17 in1.8 miNorth (350°)13.8 mph0.00 inSnowLight Snow
10:45 PM15.8 °F10.4 °F79 %30.18 in0.5 miNorth (360°)11.5 mph19.6 mph0.00 inSnowSnow
10:53 PM15.8 °F10.4 °F79 %30.18 in0.2 miNorth (350°)17.3 mph24.2 mph0.00 inSnowHeavy Snow
10:55 PM15.1 °F10.0 °F80 %30.22 in0.2 miNorth (350°)16.1 mph24.2 mph0.00 inSnowHeavy Snow
11:02 PM15.8 °F10.4 °F79 %30.18 in1.0 miNNW (340°)15.0 mph0.00 inSnowLight Snow
11:12 PM15.8 °F8.6 °F73 %30.19 in1.8 miNorth (350°)11.5 mph0.00 inSnowLight Snow
11:15 PM15.8 °F8.6 °F73 %30.19 in3.0 miNorth (360°)9.2 mph18.4 mph0.00 inSnowLight Snow
11:31 PM14.0 °F8.6 °F79 %30.19 in8.0 miNNW (340°)12.7 mph23.0 mph0.00 inSnowLight Snow
11:55 PM14.0 °F8.1 °F77 %30.25 in4.0 miNNW (340°)11.5 mph0.00 inSnowLight Snow
Hourly data recorded from KMKG, located miles away from Ferrysburg, Michigan







STORIES FROM OUR PARTNERS